Temperature
19 19 19 18 18 18 18 18 18 18 18 18 18 18 18 18 18 17 17 17 17 16 16 16 16 16 15 15 15 15 15 15 16 16 16 16 16 16 16 16 16 16 16
19 18 18 18 18 18 18 18 18 18 18 18 18 18 18 18 17 17 17 17 17 16 16 16 15 15 15 15 15 15 15 15 15 16 16 16 16 16 16 16 16 16 16
19 18 18 18 18 18 18 18 18 18 18 18 18 18 17 17 17 17 17 17 16 16 16 16 15 15 15 15 15 15 15 15 15 15 16 16 15 15 15 16 15 16 15
19 19 18 18 18 18 18 18 18 18 18 18 18 18 18 18 17 17 17 17 16 16 16 15 15 15 15 15 15 15 15 15 15 15 15 15 15 15 15 15 15 15 15
19 19 19 18 18 18 18 18 18 18 18 18 18 18 18 18 17 17 17 17 16 16 16 15 15 15 15 15 15 15 15 15 15 15 15 15 15 15 15 15 15 15 15
19 19 19 18 18 18 18 18 18 18 18 18 18 18 18 18 17 17 17 17 16 16 16 15 15 15 15 15 15 15 15 15 15 15 15 15 15 15 15 15 15 15 15
19 19 19 18 18 18 18 18 18 18 18 18 18 18 18 18 17 17 17 17 16 16 16 16 15 15 15 15 15 15 15 14 14 14 15 15 15 15 15 15 15 15 15
19 19 19 19 18 18 18 18 18 18 18 18 18 18 18 17 17 17 17 17 17 16 16 16 16 15 15 15 15 15 14 14 14 14 14 14 14 14 14 15 15 14 14
20 20 19 19 19 18 18 19 18 18 18 18 18 18 17 17 17 17 17 17 17 16 16 16 16 15 15 15 15 15 15 14 14 14 14 14 14 14 14 14 14 14 14
20 20 20 19 19 19 19 19 19 19 18 18 18 18 18 18 17 17 17 17 17 16 16 16 16 16 15 15 15 15 15 14 14 14 14 14 14 14 14 14 14 14 14
20 20 20 20 20 19 19 19 19 18 18 18 18 18 18 18 17 17 17 17 17 17 16 16 16 16 16 15 15 15 15 15 14 14 14 14 14 14 14 14 14 14 14
21 21 21 20 20 19 19 19 19 19 19 18 18 18 18 18 17 17 17 17 17 17 17 16 16 16 16 16 16 15 15 15 15 14 14 14 14 14 14 14 14 14 13
21 21 21 20 20 20 20 19 19 19 19 19 18 18 18 18 18 18 17 17 17 17 17 16 16 16 16 16 16 16 15 15 15 15 14 14 14 14 14 14 14 14 14
21 20 20 20 20 20 20 20 20 19 19 19 19 18 18 18 18 18 17 17 17 17 17 17 16 16 16 16 16 16 15 15 15 15 15 15 14 14 14 14 14 14 14
20 20 20 20 20 20 20 20 20 20 19 19 19 19 18 18 18 18 17 17 17 17 17 17 16 16 16 16 16 15 15 15 15 15 15 15 15 15 14 14 14 14 14
20 20 20 20 20 20 20 20 20 19 19 19 19 19 18 18 18 17 17 17 17 17 16 17 16 16 16 16 16 16 15 15 15 15 15 15 15 14 14 14 14 14 14
19 19 19 20 20 20 20 20 20 20 19 19 19 19 18 18 17 17 17 17 17 17 16 16 16 16 16 16 16 15 15 15 15 15 15 15 15 14 14 14 14 14 13
18 18 19 19 19 20 20 20 20 19 19 19 19 18 18 17 17 17 17 16 16 16 16 16 16 16 16 15 15 15 15 15 15 14 14 14 14 14 14 14 14 14 14
18 18 18 18 19 19 19 19 19 19 18 18 18 18 18 17 17 17 17 16 16 16 16 16 15 15 15 15 15 14 14 14 14 14 14 14 14 14 14 13 13 13 14
17 17 17 17 17 17 18 18 18 18 17 17 17 17 17 17 17 16 16 16 16 16 16 15 15 15 15 15 14 14 13 14 14 14 14 13 13 13 13 13 13 13 13
16 16 16 16 16 16 17 17 16 16 16 16 17 16 16 16 16 16 16 15 15 15 15 14 14 14 14 14 14 13 13 13 13 13 13 13 13 13 12 12 12 12 12
15 15 15 15 15 15 16 15 15 15 15 16 16 15 15 15 15 15 15 14 14 14 14 14 14 13 13 13 13 13 13 13 13 13 13 12 12 12 12 12 12 12 11
14 14 14 14 14 14 15 14 14 14 14 14 14 14 14 14 14 14 13 13 13 13 13 13 13 13 13 12 12 12 12 12 12 12 12 12 11 11 11 11 11 11 11
14 14 14 14 13 13 13 13 13 13 14 14 13 13 13 13 13 13 13 13 13 13 13 12 12 12 12 12 12 11 11 11 11 11 11 11 11 11 11 10 10 10 10
13 13 13 13 13 13 12 12 12 13 13 13 13 12 12 12 12 13 12 12 12 12 12 12 12 12 11 11 11 11 11 11 11 11 10 10 10 10 10 10 10 9 9
12 12 12 12 12 12 12 12 12 12 12 12 12 12 12 12 12 12 12 12 12 12 11 11 11 11 11 11 10 10 10 10 10 10 10 10 9 9 9 9 9 9 9
Wind_Speed
8 8 9 10 11 11 12 12 12 11 10 8 8 7 6 6 5 5 9 10 10 10 8 5 4 4 4 3 3 2 3 2 2 3 4 4 4 2 1 1 2 2 3
9 9 9 10 10 12 12 12 12 11 10 8 7 6 6 5 5 4 6 9 9 9 8 6 4 4 4 4 4 3 3 2 2 3 3 3 4 4 3 1 1 2 2
14 12 11 10 11 12 14 13 12 11 10 9 7 6 5 4 3 4 4 5 9 8 8 7 5 4 4 4 3 4 4 2 2 2 4 4 2 2 4 3 2 1 1
12 13 12 11 12 12 12 11 12 12 11 10 10 11 8 6 6 5 5 4 7 8 9 8 7 5 4 4 3 4 3 4 2 2 2 2 4 3 1 3 3 2 1
13 14 14 13 12 11 11 11 11 11 10 10 11 10 7 5 5 5 6 5 4 7 8 8 7 5 4 4 4 4 4 3 3 1 1 2 3 3 3 0 3 3 2
12 11 11 10 9 9 10 11 12 11 10 10 10 10 10 8 8 7 7 5 3 4 5 8 6 6 5 5 4 4 5 3 3 2 2 2 2 2 3 2 1 2 3
12 11 11 11 11 11 12 12 12 11 11 11 10 10 10 10 11 9 8 6 4 4 6 5 5 4 5 5 4 4 4 4 3 3 2 2 2 3 3 3 1 1 3
12 13 13 13 12 13 13 13 13 12 12 11 10 9 9 8 7 8 8 8 6 6 7 7 6 6 7 6 5 4 3 3 3 3 3 2 1 2 3 4 3 1 2
14 14 13 13 13 13 13 13 14 12 12 12 11 9 9 9 9 8 8 7 6 7 7 7 7 6 6 6 5 3 4 4 3 3 3 2 1 1 2 3 4 4 1
13 14 14 14 13 13 12 12 12 12 11 11 11 11 9 9 9 8 8 7 7 7 9 8 8 7 6 6 5 4 3 4 3 3 3 2 1 1 1 2 2 3 4
13 14 13 13 13 12 12 12 12 11 11 11 10 10 9 9 8 8 9 9 7 8 9 9 9 8 8 7 6 5 5 5 4 3 4 4 3 2 1 1 1 2 3
10 12 13 12 12 13 13 13 13 12 12 11 10 10 9 9 9 9 9 9 9 9 10 9 9 9 8 8 8 7 6 6 6 6 5 5 4 4 3 3 3 3 3
8 8 10 12 13 13 13 14 14 14 12 11 11 10 10 10 10 9 8 8 9 9 9 9 9 9 8 8 8 8 7 7 8 7 7 7 6 6 5 5 4 3 3
8 8 8 10 12 13 13 14 14 13 12 11 11 11 11 11 10 9 8 8 8 9 9 9 9 8 8 8 8 8 7 7 7 7 8 8 8 8 8 6 6 5 4
6 7 8 8 9 10 11 12 13 12 12 12 12 12 11 9 9 9 8 8 8 9 9 9 8 8 7 8 8 8 8 8 7 7 7 8 10 11 9 7 7 6 5
5 4 5 6 7 9 11 11 11 12 11 12 12 10 9 9 9 9 9 8 8 8 8 9 9 9 9 11 12 10 7 7 8 8 7 8 9 11 14 14 12 10 8
4 4 2 3 3 4 7 9 10 10 10 11 10 9 8 9 9 8 8 9 9 8 8 9 9 9 10 12 13 13 8 8 8 8 7 7 7 8 7 10 12 12 15
6 5 5 5 3 2 3 6 7 8 9 8 7 7 8 8 6 6 7 7 6 7 8 8 8 8 9 12 13 12 9 8 8 8 8 8 7 6 6 6 7 8 9
8 7 6 6 5 4 3 6 7 6 6 6 6 7 8 8 7 7 6 6 6 7 7 6 7 8 8 11 12 11 6 7 8 7 7 7 7 9 8 5 7 8 9
9 8 7 8 8 6 6 9 7 6 4 3 3 3 4 6 7 7 6 5 6 6 5 6 6 7 7 8 11 12 5 6 6 5 5 8 8 8 7 6 6 9 10
11 10 10 10 8 7 9 10 9 6 4 5 5 5 4 3 3 3 3 3 3 3 3 4 4 4 5 5 7 9 6 6 5 4 4 4 6 8 9 8 8 12 11
11 10 11 11 10 9 11 11 9 6 6 7 7 6 5 3 2 3 2 2 3 2 2 1 1 1 1 2 3 6 8 6 4 4 4 4 7 8 9 8 11 14 11
10 9 11 11 10 10 10 11 7 6 7 8 7 5 5 4 3 3 2 2 2 2 2 2 2 1 1 0 1 2 4 5 4 4 5 6 8 9 8 10 12 10 6
9 9 10 11 10 9 10 8 7 7 8 8 6 5 5 5 4 3 2 2 2 2 2 1 1 0 0 1 1 1 0 1 3 4 5 7 9 8 9 8 7 5 5
8 8 9 9 8 8 8 7 7 8 8 7 6 5 5 5 5 4 3 2 1 2 3 2 2 2 1 2 2 1 0 1 2 2 2 2 3 4 4 5 5 5 5
8 8 8 8 7 7 7 7 7 7 8 7 6 5 4 4 3 3 4 5 3 3 2 2 2 0 0 1 1 2 3 2 1 1 1 3 4 4 5 6 6 5 6
Wind_Direction
171 165 167 169 166 168 167 163 161 161 156 151 147 145 150 150 146 146 146 141 139 135 127 118 113 109 109 112 102 86 62 37 48 64 29 8 14 33 56 83 100 115 151
164 172 177 181 175 174 172 170 166 166 164 161 156 152 146 149 152 145 149 150 143 142 140 129 130 124 113 97 82 82 82 31 52 104 86 37 8 0 10 20 95 91 100
169 173 180 182 177 175 171 172 170 167 165 157 140 130 115 109 119 146 157 161 153 147 143 142 136 131 126 122 108 99 102 76 19 79 129 128 189 316 340 353 20 63 78
171 174 178 182 186 183 174 168 169 167 168 159 155 155 157 160 175 171 168 165 159 155 152 148 142 134 132 134 132 111 109 108 61 13 44 130 150 137 4 335 341 351 44
176 177 179 182 185 183 172 166 163 167 169 167 163 161 159 162 157 155 157 163 163 163 158 153 143 136 138 141 130 116 109 114 120 97 66 64 64 89 128 249 323 339 321
180 177 174 168 176 175 170 167 169 173 173 170 169 168 166 162 157 164 167 170 169 169 165 159 151 149 147 148 146 137 127 126 122 113 106 120 118 128 129 154 255 296 300
177 174 170 173 176 174 173 174 176 179 179 176 176 176 174 170 172 173 176 172 171 181 185 165 159 158 163 162 151 144 146 145 136 139 135 136 156 161 148 136 162 306 307
181 179 180 181 183 182 180 179 181 183 183 182 183 182 177 173 177 179 177 181 185 190 183 173 173 172 170 166 156 152 165 155 153 154 150 144 166 158 154 153 143 74 340
185 182 182 183 184 186 187 184 183 184 187 187 184 185 183 179 180 181 179 182 188 190 180 175 176 176 172 167 158 163 179 171 174 176 172 170 206 164 159 155 151 147 162
184 181 182 186 187 186 185 182 183 189 189 189 190 193 190 187 181 176 181 184 185 182 173 175 177 177 175 169 164 170 180 177 191 190 179 194 214 195 160 158 154 151 159
186 182 183 185 184 180 179 182 185 188 187 186 189 188 187 187 179 179 184 184 183 178 178 180 179 179 180 176 173 187 184 190 207 209 197 212 206 206 216 189 164 165 158
185 182 180 179 180 182 183 186 188 190 191 189 187 188 183 182 182 187 188 181 179 181 180 178 181 187 187 184 184 196 196 197 208 216 210 220 212 215 225 215 213 209 193
179 182 179 180 184 186 187 189 191 193 192 187 186 188 188 188 191 192 187 181 179 181 180 178 185 191 191 191 194 197 202 205 211 212 210 216 207 217 222 218 219 223 219
169 175 182 185 187 189 188 189 192 192 189 187 187 191 195 195 196 192 186 184 181 181 183 184 188 191 194 197 199 198 203 210 216 216 216 216 210 215 218 221 221 219 222
158 169 183 186 188 188 190 191 193 191 188 186 192 199 200 197 193 191 190 189 188 191 187 187 193 193 196 203 201 203 209 213 221 224 224 224 220 218 216 219 217 214 222
149 162 181 187 189 191 191 191 192 192 185 186 195 196 192 192 196 199 194 192 196 198 192 195 198 201 211 210 206 204 214 215 220 227 232 236 234 234 231 231 224 212 217
117 114 125 165 168 178 183 184 187 180 178 185 189 189 190 196 202 203 199 199 200 199 203 206 203 209 218 217 214 211 210 217 222 224 229 241 241 232 235 242 243 237 233
94 85 78 69 61 89 144 164 161 164 174 180 185 184 185 193 194 194 201 205 203 205 210 212 209 213 223 219 221 220 215 221 225 223 222 227 241 239 230 241 251 251 248
85 79 76 75 70 65 94 125 131 146 163 178 182 183 187 188 186 192 198 201 203 210 212 210 211 217 227 218 218 216 215 226 234 232 228 225 232 243 236 235 252 263 266
74 70 72 71 67 59 73 86 92 105 122 145 151 158 172 177 183 192 195 197 198 208 205 216 217 218 225 220 218 211 212 227 241 244 243 238 240 252 246 234 244 260 265
75 72 70 65 55 56 72 75 73 77 85 92 94 97 108 136 157 162 166 162 169 170 186 216 225 219 220 220 215 205 203 220 232 240 246 248 253 257 257 249 243 252 259
74 72 72 65 54 58 71 70 59 48 58 69 71 72 78 84 94 107 112 120 130 137 157 177 241 254 230 206 208 206 209 208 214 238 249 253 265 271 271 261 255 262 269
77 73 77 71 57 53 66 70 55 52 61 63 60 58 57 59 64 87 114 126 132 151 169 179 194 238 294 2 108 161 198 205 216 246 260 275 281 287 282 270 270 272 262
81 76 76 73 60 50 56 60 54 58 66 63 57 57 58 51 49 59 87 109 118 126 127 147 170 203 326 8 19 34 318 260 255 276 288 292 286 279 273 279 279 263 251
86 82 82 79 68 57 54 50 52 60 61 58 54 50 52 59 55 50 58 84 97 139 144 166 172 170 199 246 223 166 342 297 268 286 304 301 299 297 290 287 281 276 273
93 89 84 80 70 61 53 42 45 59 61 53 48 44 45 48 48 47 32 34 58 59 85 114 127 122 189 250 311 342 349 346 7 86 302 290 286 284 287 291 292 287 279
Height
1494 1495 1498 1501 1504 1507 1510 1514 1519 1523 1527 1531 1534 1537 1539 1542 1545 1546 1548 1549 1550 1551 1551 1552 1553 1554 1555 1556 1557 1558 1559 1560 1561 1562 1563 1564 1565 1565 1566 1566 1567 1567 1567
1493 1495 1497 1500 1502 1504 1508 1512 1516 1521 1525 1529 1533 1536 1538 1541 1544 1545 1547 1548 1549 1550 1550 1551 1552 1553 1554 1555 1556 1557 1558 1559 1560 1561 1562 1563 1565 1565 1566 1566 1567 1567 1567
1490 1493 1496 1498 1500 1502 1506 1511 1515 1519 1523 1528 1532 1535 1538 1540 1542 1544 1545 1547 1548 1549 1550 1551 1552 1553 1554 1555 1556 1557 1558 1559 1560 1560 1562 1562 1563 1564 1566 1566 1566 1566 1566
1490 1492 1494 1497 1499 1502 1506 1509 1513 1519 1523 1527 1530 1532 1535 1537 1540 1542 1544 1546 1547 1548 1549 1550 1551 1552 1553 1554 1555 1556 1558 1558 1559 1560 1561 1562 1562 1563 1565 1566 1566 1566 1566
1488 1490 1492 1495 1498 1501 1505 1509 1513 1518 1522 1525 1528 1531 1533 1536 1539 1541 1543 1544 1546 1547 1548 1549 1550 1551 1552 1553 1554 1556 1557 1558 1559 1560 1560 1561 1562 1562 1563 1564 1565 1565 1565
1487 1489 1491 1494 1497 1501 1505 1508 1512 1516 1520 1523 1526 1529 1532 1535 1537 1539 1541 1543 1545 1546 1547 1548 1550 1551 1551 1552 1553 1554 1556 1557 1558 1559 1560 1560 1561 1561 1562 1563 1563 1564 1564
1486 1488 1490 1493 1496 1500 1503 1507 1510 1514 1517 1521 1524 1527 1530 1533 1535 1537 1539 1541 1543 1544 1546 1547 1549 1550 1551 1551 1552 1553 1554 1556 1557 1558 1559 1560 1560 1561 1561 1562 1562 1563 1563
1484 1486 1488 1492 1495 1498 1501 1504 1508 1511 1515 1518 1522 1525 1528 1531 1534 1536 1538 1540 1542 1543 1545 1546 1547 1548 1549 1550 1551 1552 1553 1554 1555 1557 1558 1558 1559 1560 1560 1561 1561 1561 1562
1482 1484 1487 1490 1493 1496 1499 1502 1506 1509 1513 1516 1520 1523 1526 1529 1532 1534 1537 1539 1540 1542 1543 1545 1546 1547 1548 1549 1550 1551 1552 1553 1554 1555 1556 1557 1558 1558 1559 1559 1560 1560 1560
1480 1482 1485 1488 1491 1494 1497 1501 1504 1507 1510 1514 1517 1521 1524 1527 1530 1532 1534 1536 1538 1540 1541 1543 1544 1545 1546 1547 1548 1549 1550 1552 1553 1554 1554 1555 1556 1557 1557 1558 1558 1558 1558
1477 1479 1482 1485 1489 1492 1495 1498 1502 1505 1507 1511 1515 1518 1521 1525 1527 1529 1532 1534 1536 1537 1539 1541 1542 1543 1544 1545 1546 1548 1549 1550 1551 1552 1553 1553 1554 1555 1555 1556 1556 1556 1556
1475 1477 1480 1483 1487 1490 1493 1496 1499 1502 1505 1509 1512 1515 1518 1521 1524 1526 1529 1531 1533 1535 1536 1538 1539 1540 1542 1543 1544 1545 1546 1547 1548 1549 1550 1551 1552 1552 1553 1553 1554 1554 1554
1474 1477 1479 1481 1484 1487 1490 1493 1496 1499 1503 1506 1509 1512 1514 1517 1520 1523 1526 1528 1530 1532 1533 1535 1536 1537 1538 1540 1541 1542 1544 1545 1546 1547 1548 1549 1549 1549 1550 1550 1551 1551 1551
1471 1475 1478 1480 1482 1484 1487 1490 1494 1497 1500 1503 1506 1509 1511 1514 1517 1520 1522 1525 1526 1528 1529 1531 1533 1534 1535 1536 1538 1539 1540 1541 1542 1543 1544 1545 1546 1546 1547 1547 1547 1548 1547
1470 1473 1476 1477 1480 1483 1485 1488 1491 1494 1498 1501 1503 1506 1509 1512 1514 1517 1519 1521 1523 1525 1526 1528 1529 1530 1531 1532 1534 1535 1536 1537 1538 1539 1540 1541 1542 1542 1543 1543 1544 1544 1543
1469 1471 1473 1475 1477 1480 1482 1485 1489 1491 1494 1497 1500 1503 1506 1508 1510 1513 1515 1517 1519 1521 1523 1524 1525 1526 1526 1527 1529 1531 1532 1533 1534 1535 1536 1537 1537 1538 1538 1539 1539 1539 1539
1468 1470 1471 1473 1474 1477 1479 1482 1485 1488 1491 1493 1496 1499 1502 1504 1506 1509 1511 1512 1514 1516 1518 1519 1520 1521 1523 1524 1525 1527 1528 1529 1529 1530 1531 1532 1532 1533 1533 1533 1533 1533 1533
1468 1469 1470 1471 1473 1474 1476 1479 1482 1485 1488 1490 1493 1496 1499 1500 1502 1504 1506 1507 1509 1510 1512 1514 1515 1516 1518 1519 1520 1522 1523 1523 1524 1525 1526 1526 1527 1527 1527 1527 1527 1527 1526
1469 1470 1471 1472 1472 1473 1475 1477 1479 1482 1485 1487 1489 1491 1494 1496 1498 1500 1501 1503 1505 1506 1507 1509 1510 1511 1512 1514 1515 1517 1517 1518 1518 1519 1520 1520 1521 1521 1521 1521 1520 1519 1519
1470 1471 1472 1472 1472 1473 1475 1476 1477 1480 1482 1484 1487 1489 1492 1494 1495 1497 1498 1499 1500 1501 1503 1504 1505 1505 1506 1508 1509 1510 1511 1512 1512 1513 1514 1514 1515 1515 1515 1514 1513 1512 1511
1472 1473 1473 1473 1474 1475 1476 1476 1478 1480 1482 1483 1485 1487 1489 1491 1492 1493 1494 1495 1496 1497 1497 1499 1500 1501 1502 1503 1504 1504 1505 1506 1506 1506 1507 1507 1508 1508 1508 1507 1506 1505 1504
1475 1475 1475 1475 1477 1477 1477 1478 1479 1481 1482 1483 1484 1486 1487 1488 1489 1489 1490 1491 1492 1493 1494 1495 1496 1497 1497 1498 1499 1499 1499 1500 1500 1500 1500 1501 1501 1501 1500 1500 1499 1498 1496
1478 1479 1478 1478 1479 1480 1480 1480 1482 1483 1483 1484 1484 1485 1486 1486 1487 1487 1488 1488 1490 1491 1491 1492 1493 1493 1494 1494 1494 1494 1495 1495 1495 1495 1495 1494 1494 1494 1493 1493 1491 1490 1488
1481 1482 1482 1482 1483 1484 1484 1484 1485 1485 1485 1485 1486 1486 1486 1486 1486 1486 1486 1487 1488 1488 1489 1490 1490 1490 1490 1490 1491 1491 1491 1491 1491 1490 1489 1489 1488 1487 1487 1486 1484 1483 1481
1484 1485 1485 1486 1487 1488 1488 1488 1488 1488 1487 1487 1487 1486 1486 1486 1486 1486 1486 1486 1486 1487 1487 1488 1488 1488 1488 1488 1488 1488 1487 1486 1486 1485 1484 1483 1482 1481 1480 1478 1477 1475 1473
1488 1489 1489 1490 1491 1491 1491 1491 1491 1490 1489 1488 1488 1488 1487 1487 1487 1486 1486 1486 1486 1486 1486 1486 1486 1486 1486 1486 1485 1485 1484 1483 1482 1481 1479 1478 1477 1475 1474 1472 1470 1468 1466